[[{"header":{"parameterUnit":"m.s-1","parameterCategory":1,"la1":30.2991,"la2":30.254,"lo1":-89.0895,"lo2":-89.0444,"dy":0.0017,"dx":0.0017,"nx":28,"ny":28,"refTime":"2023-10-28T21:00:00:Z","depth":0,"parameterNumber":2,"parameterNumberName":"U-component_of_WINDS"},"data":[0,0,0,0,0,0,0,0,0,0,0,0,0,0,0,0,0,0,0,0,0,0,0,0,0,0,0,0,0,0,0,0,0,0,0,0,0,0,0,0,0,0,0,0,0,0,0,0,0,0,0,0,0,0,0,0,0,0,-3.1322,-3.1321,0,-3.1205,-3.1204,-3.1203,-3.1097,-3.1096,-3.1095,-3.1094,-3.097,-3.0968,-3.0966,0,0,0,0,0,0,0,0,0,0,0,0,0,-3.1451,-3.145,-3.1322,-3.1321,-3.1319,-3.1206,-3.1204,-3.1202,-3.1097,-3.1096,-3.1094,-3.1093,-3.097,-3.0968,-3.0965,0,0,0,0,0,0,0,0,0,0,0,0,0,-3.1371,-3.1449,-3.1322,-3.1253,-3.1246,-3.1206,-3.1204,-3.1202,-3.1098,-3.1096,-3.1094,-3.1092,-3.0971,-3.0968,-3.0965,-3.0983,0,0,-3.0955,-3.0954,0,0,0,0,0,0,0,0,-3.1376,-3.1366,-3.1265,-3.1258,-3.125,-3.1164,-3.1204,-3.1128,-3.1098,-3.1154,-3.1094,-3.1091,-3.1036,-3.1027,-3.1009,-3.0977,-3.0972,-3.0955,-3.0953,-3.0952,-3.0951,0,0,0,0,0,0,0,-3.1381,-3.1371,-3.1276,-3.1264,-3.1254,-3.1227,-3.1214,-3.1189,-3.1107,-3.1149,-3.1141,-3.1129,-3.1031,-3.1013,-3.1005,-3.097,-3.0955,-3.0952,-3.095,-3.0949,-3.0948,-3.0949,0,0,0,0,0,0,-3.1398,-3.1376,-3.1279,-3.1272,-3.131,-3.1227,-3.1211,-3.1193,-3.1107,-3.1092,-3.1131,-3.1124,-3.1019,-3.1009,-3.1001,-3.1016,-3.0952,-3.0949,-3.0947,-3.0946,-3.0948,-3.095,0,0,0,0,0,0,-3.1401,-3.1391,-3.1284,-3.1322,-3.1307,-3.1226,-3.1207,-3.1192,-3.1173,-3.1093,-3.1077,-3.1127,-3.1017,-3.1005,-3.0989,-3.101,-3.0947,-3.0944,-3.0943,-3.0946,-3.0949,-3.1046,0,0,0,0,0,0,-3.1405,-3.1392,-3.1398,-3.1323,-3.1305,-3.1275,-3.1208,-3.1191,-3.1169,-3.1159,-3.1085,-3.1071,-3.1015,-3.0994,-3.0985,-3.1004,-3.0942,-3.0941,-3.0945,-3.0948,-3.1041,-3.1052,-3.1062,0,0,0,0,0,-3.141,-3.1429,-3.1399,-3.1388,-3.1311,-3.1276,-3.1266,-3.1202,-3.1171,-3.1176,-3.1125,-3.1073,-3.101,-3.0993,-3.0983,-3.1001,-3.0939,-3.0944,-3.0948,-3.1036,-3.105,-3.1062,0,0,0,0,0,0,-3.1506,-3.1418,-3.1384,-3.1379,-3.1336,-3.1259,-3.1263,-3.1218,-3.1182,-3.1175,-3.1096,-3.108,-3.1072,-3.1035,-3.1018,-3.1014,-3.0968,-3.097,-3.1038,-3.1051,-3.1061,-3.1069,-3.0939,0,0,0,0,0,-3.1528,-3.1508,-3.1431,-3.1434,-3.1415,-3.1344,-3.1326,-3.1281,-3.1232,-3.1213,-3.116,-3.1115,-3.1085,-3.1066,-3.1034,-3.1036,-3.1018,-3.1044,-3.1054,-3.1063,-3.1065,-3.1065,-3.1075,-3.0964,-3.0964,-3.0964,0,0,-3.157,-3.1519,-3.1511,-3.1452,-3.1414,-3.1395,-3.1328,-3.131,-3.1295,-3.121,-3.1191,-3.1152,-3.1095,-3.1089,-3.1083,-3.1058,-3.1093,-3.1069,-3.1077,-3.1073,-3.107,-3.1081,-3.109,-3.0967,-3.0966,-3.0966,0,0,-3.1637,-3.1597,-3.1595,-3.156,-3.1503,-3.1456,-3.1456,-3.1386,-3.1357,-3.1338,-3.1274,-3.1255,-3.1204,-3.1167,-3.1142,-3.1199,-3.1151,-3.1191,-3.1245,-3.1245,-3.1254,-3.1261,-3.1281,-3.1289,-3.1194,-3.1194,-3.1195,0,-3.1696,-3.1665,-3.16,-3.1586,-3.1562,-3.1488,-3.1486,-3.1453,-3.1389,-3.1374,-3.1347,-3.1284,-3.1241,-3.1225,-3.1239,-3.1222,-3.1219,-3.1198,-3.1258,-3.1265,-3.1271,-3.1289,-3.1296,-3.12,-3.1199,-3.1198,-3.1198,0,-3.174,-3.172,-3.1725,-3.1668,-3.1645,-3.1637,-3.157,-3.1555,-3.1513,-3.1469,-3.1451,-3.1398,-3.1354,-3.1347,-3.1305,-3.1326,-3.1312,-3.1273,-3.1224,-3.1288,-3.1303,-3.131,-3.1207,-3.1205,-3.1204,-3.1202,0,0,-3.186,-3.177,-3.1772,-3.1746,-3.168,-3.1663,-3.1653,-3.1612,-3.16,-3.1559,-3.1548,-3.1509,-3.1474,-3.1445,-3.1399,-3.1399,-3.1448,-3.136,-3.1357,-3.1377,-3.1468,-3.1496,-3.1505,-3.1417,-3.1418,-3.1419,-3.1472,0,-3.1914,-3.1892,-3.1835,-3.183,-3.181,-3.1742,-3.1733,-3.1691,-3.1651,-3.1628,-3.1583,-3.1556,-3.1512,-3.1494,-3.1492,-3.1443,-3.1465,-3.1439,-3.1404,-3.1404,-3.1418,-3.1513,-3.1542,-3.1595,-3.1478,-3.1479,-3.1479,0,-3.1973,-3.194,-3.1934,-3.1871,-3.1861,-3.1854,-3.1813,-3.1793,-3.1745,-3.1715,-3.1686,-3.1636,-3.1621,-3.1579,-3.1557,-3.154,-3.1524,-3.1498,-3.1498,-3.149,-3.1444,-3.1506,-3.161,-3.1617,-3.1489,-3.1488,-3.1487,0,-3.206,-3.2014,-3.2004,-3.1984,-3.1911,-3.1908,-3.1877,-3.1828,-3.1808,-3.1772,-3.1758,-3.1721,-3.17,-3.1673,-3.1614,-3.1589,-3.1599,-3.1551,-3.1573,-3.1575,-3.1575,-3.1576,-3.1676,-3.1569,-3.1569,-3.1569,-3.1568,0,-3.2126,-3.2124,-3.2042,-3.2036,-3.2033,-3.1968,-3.1966,-3.1929,-3.1887,-3.1872,-3.1811,-3.1798,-3.1722,-3.1701,-3.1655,-3.1644,-3.1635,-3.1611,-3.1598,-3.1615,-3.1618,-3.16,-3.1595,-3.1571,-3.157,-3.157,-3.1569,0,-3.222,-3.2165,-3.215,-3.2085,-3.2068,-3.2068,-3.2011,-3.2003,-3.1961,-3.1943,-3.1935,-3.1868,-3.184,-3.178,-3.1735,-3.1704,-3.1704,-3.1682,-3.172,-3.1712,-3.1736,-3.1735,-3.1827,-3.1836,-3.1726,-3.1727,-3.1728,0,-3.2264,-3.2262,-3.2197,-3.2184,-3.2156,-3.2135,-3.2115,-3.2053,-3.2035,-3.1982,-3.198,-3.1948,-3.1918,-3.1877,-3.1824,-3.1789,-3.1766,-3.1801,-3.176,-3.1777,-3.1765,-3.1765,-3.1764,-3.1809,-3.1811,-3.1812,-3.1813,0,-3.2348,-3.2322,-3.2296,-3.2262,-3.2241,-3.2211,-3.2177,-3.2169,-3.2099,-3.2082,-3.2053,-3.2031,-3.1987,-3.1955,-3.1914,-3.1881,-3.1835,-3.1827,-3.183,-3.1846,-3.1867,-3.1855,-3.1743,-3.1824,-3.1823,-3.1822,-3.1821,-3.1821,-3.2417,-3.2412,-3.2367,-3.2341,-3.231,-3.2281,-3.227,-3.2228,-3.2204,-3.2164,-3.2129,-3.2104,-3.2059,-3.1999,-3.197,-3.195,-3.1926,-3.1931,-3.1932,-3.1933,-3.194,-3.1873,-3.1942,-3.1942,-3.1941,-3.1941,-3.1941,0,-3.2496,-3.2465,-3.2442,-3.2398,-3.2378,-3.234,-3.2302,-3.2287,-3.2267,-3.2229,-3.2203,-3.2171,-3.2142,-3.2088,-3.2054,-3.2048,-3.2026,-3.2041,-3.2039,-3.2032,-3.1963,-3.1963,-3.2059,-3.2059,-3.2059,-3.2059,-3.2059,-3.2059,-3.2535,-3.2525,-3.2495,-3.2469,-3.2437,-3.2414,-3.2395,-3.2368,-3.2338,-3.2306,-3.2282,-3.2249,-3.2205,-3.2167,-3.2139,-3.2124,-3.2113,-3.2135,-3.2113,-3.2048,-3.2037,-3.2026,-3.2026,-3.2133,-3.2133,-3.2183,-3.2184,-3.2184]},{"header":{"parameterUnit":"m.s-1","parameterCategory":1,"la1":30.2991,"la2":30.254,"lo1":-89.0895,"lo2":-89.0444,"dy":0.0017,"dx":0.0017,"nx":28,"ny":28,"refTime":"2023-10-28T21:00:00:Z","depth":0,"parameterNumber":3,"parameterNumberName":"V-component_of_WINDS"},"data":[0,0,0,0,0,0,0,0,0,0,0,0,0,0,0,0,0,0,0,0,0,0,0,0,0,0,0,0,0,0,0,0,0,0,0,0,0,0,0,0,0,0,0,0,0,0,0,0,0,0,0,0,0,0,0,0,0,0,1.4818,1.4818,0,1.4819,1.4819,1.4819,1.4889,1.4891,1.4893,1.4894,1.489,1.4889,1.4887,0,0,0,0,0,0,0,0,0,0,0,0,0,1.4875,1.4873,1.4818,1.4818,1.4818,1.4819,1.4819,1.4819,1.4889,1.4891,1.4893,1.4895,1.4891,1.4889,1.4887,0,0,0,0,0,0,0,0,0,0,0,0,0,1.486,1.4873,1.4818,1.4853,1.4856,1.4819,1.4819,1.4819,1.4888,1.4891,1.4894,1.4896,1.4892,1.4889,1.4886,1.4814,0,0,1.4878,1.4877,0,0,0,0,0,0,0,0,1.4861,1.4858,1.4848,1.4851,1.4854,1.4857,1.4838,1.4817,1.4887,1.4876,1.4894,1.4898,1.4877,1.4875,1.4869,1.4814,1.4814,1.4878,1.4876,1.4875,1.4874,0,0,0,0,0,0,0,1.4862,1.4858,1.4818,1.4848,1.4851,1.4868,1.4869,1.4834,1.486,1.4877,1.4882,1.4882,1.4879,1.4872,1.487,1.4814,1.4878,1.4876,1.4874,1.4873,1.4702,1.4699,0,0,0,0,0,0,1.4858,1.4859,1.4818,1.4818,1.4864,1.4865,1.4866,1.4853,1.4861,1.4865,1.4879,1.4885,1.4875,1.4873,1.487,1.4787,1.4875,1.4872,1.4871,1.4705,1.4701,1.4698,0,0,0,0,0,0,1.4859,1.4854,1.4818,1.484,1.4837,1.4861,1.4846,1.4851,1.4845,1.4863,1.4868,1.4867,1.4877,1.4874,1.4828,1.4788,1.4871,1.4869,1.4708,1.4704,1.47,1.462,0,0,0,0,0,0,1.4861,1.4854,1.4827,1.4839,1.4835,1.4777,1.4843,1.4849,1.484,1.4848,1.4853,1.4856,1.4879,1.4832,1.4826,1.4786,1.4867,1.4712,1.4706,1.4701,1.4626,1.4614,1.4603,0,0,0,0,0,1.4862,1.4803,1.4825,1.482,1.4802,1.4774,1.4772,1.4801,1.4837,1.481,1.4822,1.4856,1.4794,1.4827,1.482,1.4779,1.4714,1.4708,1.4701,1.4632,1.4616,1.4603,0,0,0,0,0,0,1.4783,1.4805,1.483,1.4773,1.4772,1.4786,1.4753,1.4783,1.477,1.4777,1.4813,1.4813,1.4762,1.4766,1.4803,1.4711,1.476,1.4752,1.471,1.4695,1.4683,1.4683,1.4864,0,0,0,0,0,1.476,1.4736,1.4756,1.4704,1.4702,1.4728,1.4717,1.4739,1.4739,1.4738,1.4747,1.4744,1.4724,1.471,1.4692,1.4628,1.4631,1.4597,1.4585,1.4575,1.4567,1.4535,1.452,1.4677,1.4677,1.4677,0,0,1.4709,1.4719,1.4701,1.4688,1.469,1.4665,1.4726,1.4696,1.4678,1.4733,1.4691,1.4698,1.4697,1.4643,1.4619,1.4644,1.4525,1.4566,1.4558,1.4556,1.4527,1.4512,1.4499,1.4672,1.4673,1.4674,0,0,1.4605,1.461,1.4568,1.4569,1.4572,1.459,1.458,1.4591,1.4598,1.4558,1.4599,1.4577,1.4542,1.454,1.4535,1.4434,1.4465,1.4427,1.4364,1.4333,1.432,1.431,1.4274,1.4261,1.442,1.4419,1.4419,0,1.4542,1.4507,1.4542,1.451,1.4504,1.4555,1.4513,1.4512,1.4508,1.4502,1.4531,1.449,1.4493,1.4439,1.4415,1.4409,1.4398,1.4426,1.432,1.4309,1.43,1.4266,1.4253,1.4415,1.4415,1.4416,1.4416,0,1.4429,1.4405,1.437,1.4368,1.4358,1.4321,1.435,1.4335,1.436,1.4374,1.4333,1.4339,1.4325,1.4314,1.4336,1.4264,1.428,1.4314,1.4364,1.428,1.4249,1.4236,1.4408,1.441,1.4411,1.4412,0,0,1.4272,1.4293,1.428,1.4281,1.4289,1.427,1.4236,1.4225,1.4212,1.4208,1.418,1.4151,1.4183,1.4177,1.42,1.4172,1.4093,1.421,1.421,1.4188,1.4015,1.399,1.3975,1.4115,1.4113,1.4111,1.4016,0,1.4172,1.4117,1.4149,1.4088,1.4066,1.4117,1.4087,1.4089,1.4103,1.4085,1.41,1.4079,1.4123,1.412,1.4095,1.4108,1.4059,1.4116,1.4089,1.4088,1.4087,1.3958,1.3931,1.384,1.4004,1.4002,1.4,0,1.4047,1.4042,1.3979,1.3995,1.3987,1.396,1.3953,1.3936,1.394,1.3952,1.3947,1.3977,1.3945,1.3996,1.3952,1.399,1.3982,1.3987,1.3984,1.3982,1.4038,1.3953,1.3812,1.3799,1.3982,1.3983,1.3985,0,1.394,1.3916,1.3877,1.3876,1.3893,1.3873,1.3879,1.3886,1.3877,1.3871,1.3866,1.3855,1.3849,1.384,1.3867,1.3902,1.382,1.3873,1.3828,1.3827,1.3808,1.3808,1.3664,1.3802,1.3803,1.3803,1.3803,0,1.3825,1.3785,1.383,1.3805,1.3762,1.38,1.3756,1.3767,1.3773,1.3752,1.3794,1.3773,1.381,1.3792,1.3813,1.3774,1.3771,1.3779,1.3785,1.3775,1.3774,1.3769,1.3776,1.3799,1.38,1.3801,1.3801,0,1.3697,1.3725,1.3686,1.3706,1.3711,1.3678,1.3696,1.3674,1.3692,1.3664,1.3659,1.3687,1.3668,1.3695,1.3679,1.3693,1.364,1.3655,1.3639,1.3643,1.3598,1.3602,1.3444,1.3426,1.3576,1.3575,1.3574,0,1.3621,1.3592,1.3611,1.3601,1.3605,1.3587,1.358,1.3616,1.3607,1.3611,1.3588,1.3574,1.3565,1.3533,1.3551,1.3539,1.3555,1.3501,1.3553,1.3545,1.3554,1.3556,1.3553,1.3489,1.3487,1.3486,1.3485,0,1.3483,1.35,1.3489,1.3483,1.3474,1.3471,1.3471,1.3459,1.3498,1.3485,1.3469,1.3462,1.3447,1.3432,1.3426,1.3431,1.3464,1.3469,1.3458,1.3447,1.3439,1.3443,1.3609,1.3472,1.3473,1.3474,1.3475,1.3475,1.338,1.3357,1.3368,1.3355,1.3359,1.3359,1.334,1.3357,1.3344,1.3337,1.3359,1.3337,1.3343,1.3339,1.3341,1.3324,1.3347,1.3331,1.3327,1.3323,1.3316,1.3442,1.3323,1.3323,1.3323,1.3324,1.3324,0,1.3245,1.3255,1.3243,1.3243,1.3233,1.3268,1.327,1.3259,1.324,1.3244,1.3235,1.3217,1.3203,1.3222,1.3212,1.3195,1.321,1.3191,1.3192,1.3193,1.3295,1.3306,1.3179,1.3179,1.3179,1.3179,1.3179,1.3179,1.3174,1.3138,1.3157,1.3124,1.3134,1.3115,1.3114,1.3113,1.3118,1.3096,1.3086,1.3099,1.3109,1.31,1.309,1.3096,1.309,1.3066,1.3076,1.3171,1.3185,1.3199,1.3209,1.3064,1.3064,1.2976,1.2975,1.2975]}]]